VOI281 MMPR-MMMX

Flight info

Callsign VOI281
Flight time 1h 13m
Altitude 39000
Route VOLAT1D VOLAT UT119 ESPOS ESPOS3A
Aircraft A20N/M-SDE2E3FGHIRWXY/LB1

Departure

Time 2026-04-17 05:56
Airport Puerto Vallarta International Airport (MMPR)

Arrival

Time 2026-04-17 07:09
Airport Mexico City Benito Juárez International Airport (MMMX)
Time Latitude Longitude Altitude Speed Heading
2026-04-17 05:05 20.68014 -105.24628 31 ft 0 kts 230°
2026-04-17 05:45 20.68017 -105.24625 31 ft 3 kts 229°
2026-04-17 05:45 20.68031 -105.24607 31 ft 3 kts 229°
2026-04-17 05:45 20.68045 -105.24589 32 ft 3 kts 250°
2026-04-17 05:45 20.68046 -105.24566 32 ft 3 kts 296°
2026-04-17 05:46 20.68036 -105.24552 32 ft 2 kts 332°
2026-04-17 05:46 20.68054 -105.24560 30 ft 3 kts 333°
2026-04-17 05:46 20.68058 -105.24564 31 ft 0 kts 321°
2026-04-17 05:50 20.68059 -105.24565 31 ft 1 kts 321°
2026-04-17 05:51 20.68067 -105.24572 32 ft 2 kts 321°
2026-04-17 05:51 20.68084 -105.24587 32 ft 4 kts 319°
2026-04-17 05:51 20.68119 -105.24622 32 ft 11 kts 316°
2026-04-17 05:51 20.68177 -105.24679 32 ft 8 kts 318°
2026-04-17 05:52 20.68228 -105.24700 32 ft 8 kts
2026-04-17 05:52 20.68250 -105.24693 32 ft 0 kts 13°
2026-04-17 05:52 20.68273 -105.24688 32 ft 8 kts 13°
2026-04-17 05:52 20.68346 -105.24664 31 ft 12 kts 17°
2026-04-17 05:53 20.68434 -105.24635 32 ft 14 kts 18°
2026-04-17 05:53 20.68519 -105.24573 32 ft 16 kts 47°
2026-04-17 05:53 20.68598 -105.24482 33 ft 16 kts 47°
2026-04-17 05:53 20.68677 -105.24393 33 ft 17 kts 47°
2026-04-17 05:54 20.68761 -105.24296 34 ft 14 kts 45°
2026-04-17 05:54 20.68843 -105.24272 35 ft 13 kts 338°
2026-04-17 05:54 20.68890 -105.24308 33 ft 8 kts 317°
2026-04-17 05:54 20.68926 -105.24357 33 ft 9 kts 299°
2026-04-17 05:55 20.68931 -105.24387 35 ft 3 kts 216°
2026-04-17 05:55 20.68890 -105.24418 35 ft 0 kts 225°
2026-04-17 05:55 20.68770 -105.24551 34 ft 68 kts 226°
2026-04-17 05:55 20.68225 -105.25171 30 ft 163 kts 226°
2026-04-17 05:56 20.67336 -105.26168 502 ft 195 kts 225°
2026-04-17 05:56 20.66382 -105.27205 1534 ft 191 kts 226°
2026-04-17 05:56 20.65446 -105.28269 2508 ft 206 kts 228°
2026-04-17 05:56 20.64442 -105.29424 3451 ft 217 kts 229°
2026-04-17 05:57 20.63400 -105.30616 4457 ft 224 kts 229°
2026-04-17 05:57 20.62327 -105.31838 5476 ft 227 kts 229°
2026-04-17 05:57 20.61243 -105.33068 6509 ft 228 kts 229°
2026-04-17 05:57 20.60092 -105.34233 7472 ft 230 kts 218°
2026-04-17 05:58 20.58601 -105.34874 8397 ft 237 kts 186°
2026-04-17 05:58 20.56995 -105.34575 9549 ft 235 kts 159°
2026-04-17 05:58 20.55539 -105.33825 10716 ft 231 kts 153°
2026-04-17 05:59 20.52719 -105.32178 12887 ft 232 kts 152°
2026-04-17 05:59 20.51292 -105.31351 13925 ft 235 kts 152°
2026-04-17 05:59 20.49837 -105.30518 14806 ft 239 kts 152°
2026-04-17 05:59 20.48372 -105.29683 15667 ft 244 kts 153°
2026-04-17 06:00 20.46855 -105.28821 16554 ft 250 kts 153°
2026-04-17 06:00 20.45303 -105.27943 17439 ft 255 kts 154°
2026-04-17 06:00 20.43714 -105.27045 18332 ft 261 kts 154°
2026-04-17 06:00 20.42130 -105.26052 19102 ft 267 kts 145°
2026-04-17 06:01 20.41236 -105.25134 19631 ft 273 kts 129°
2026-04-17 06:01 20.40428 -105.23264 20298 ft 290 kts 104°
2026-04-17 06:01 20.40195 -105.21037 20658 ft 316 kts 95°
2026-04-17 06:01 20.40112 -105.17772 21053 ft 347 kts 93°
2026-04-17 06:02 20.40073 -105.15994 21264 ft 362 kts 93°
2026-04-17 06:02 20.40002 -105.13260 21607 ft 383 kts 94°
2026-04-17 06:02 20.39912 -105.10367 22036 ft 397 kts 94°
2026-04-17 06:02 20.39812 -105.07394 22626 ft 405 kts 94°
2026-04-17 06:03 20.39704 -105.04372 23294 ft 411 kts 94°
2026-04-17 06:03 20.39591 -105.01310 23921 ft 416 kts 94°
2026-04-17 06:03 20.39474 -104.98204 24457 ft 422 kts 95°
2026-04-17 06:03 20.39353 -104.95058 25011 ft 427 kts 95°
2026-04-17 06:04 20.39231 -104.91881 25546 ft 432 kts 95°
2026-04-17 06:04 20.39107 -104.88664 26083 ft 436 kts 95°
2026-04-17 06:04 20.38982 -104.85454 26599 ft 440 kts 95°
2026-04-17 06:04 20.38854 -104.82179 27107 ft 445 kts 95°
2026-04-17 06:05 20.38724 -104.78867 27602 ft 449 kts 95°
2026-04-17 06:05 20.38592 -104.75527 28065 ft 453 kts 95°
2026-04-17 06:05 20.38458 -104.72153 28543 ft 457 kts 95°
2026-04-17 06:05 20.38322 -104.68746 29003 ft 461 kts 95°
2026-04-17 06:06 20.38183 -104.65312 29457 ft 465 kts 95°
2026-04-17 06:06 20.38044 -104.61850 29895 ft 469 kts 95°
2026-04-17 06:06 20.37902 -104.58358 30336 ft 472 kts 95°
2026-04-17 06:06 20.37761 -104.54870 30820 ft 472 kts 95°
2026-04-17 06:07 20.37620 -104.51408 31289 ft 472 kts 96°
2026-04-17 06:07 20.37476 -104.47911 31789 ft 473 kts 96°
2026-04-17 06:07 20.37331 -104.44404 32284 ft 473 kts 96°
2026-04-17 06:07 20.37184 -104.40894 32765 ft 474 kts 96°
2026-04-17 06:08 20.37038 -104.37386 33259 ft 475 kts 96°
2026-04-17 06:08 20.36888 -104.33866 33725 ft 475 kts 96°
2026-04-17 06:08 20.36554 -104.30367 34161 ft 471 kts 105°
2026-04-17 06:08 20.35712 -104.27020 34569 ft 466 kts 114°
2026-04-17 06:09 20.34624 -104.23781 34998 ft 464 kts 116°
2026-04-17 06:09 20.33490 -104.20568 35430 ft 463 kts 116°
2026-04-17 06:09 20.32351 -104.17357 35844 ft 462 kts 116°
2026-04-17 06:09 20.31218 -104.14154 36237 ft 462 kts 116°
2026-04-17 06:10 20.30084 -104.10939 36604 ft 462 kts 116°
2026-04-17 06:10 20.28969 -104.07774 36961 ft 462 kts 116°
2026-04-17 06:10 20.27841 -104.04573 37320 ft 462 kts 116°
2026-04-17 06:10 20.26711 -104.01363 37681 ft 462 kts 116°
2026-04-17 06:11 20.25583 -103.98157 38030 ft 461 kts 116°
2026-04-17 06:11 20.24455 -103.94957 38364 ft 461 kts 116°
2026-04-17 06:11 20.23327 -103.91755 38732 ft 461 kts 116°
2026-04-17 06:11 20.22199 -103.88557 38971 ft 462 kts 116°
2026-04-17 06:12 20.21067 -103.85352 39016 ft 462 kts 116°
2026-04-17 06:12 20.18812 -103.78968 39017 ft 460 kts 116°
2026-04-17 06:13 20.16568 -103.72623 39024 ft 460 kts 116°
2026-04-17 06:13 20.14310 -103.66247 39017 ft 460 kts 116°
2026-04-17 06:14 20.12051 -103.59880 39020 ft 460 kts 116°
2026-04-17 06:14 20.09791 -103.53515 39025 ft 460 kts 116°
2026-04-17 06:15 20.07528 -103.47151 39022 ft 460 kts 116°
2026-04-17 06:15 20.05257 -103.40773 39023 ft 460 kts 116°
2026-04-17 06:16 20.02985 -103.34399 39027 ft 460 kts 116°
2026-04-17 06:16 20.00715 -103.28040 39024 ft 460 kts 116°
2026-04-17 06:17 19.98437 -103.21667 39028 ft 460 kts 116°
2026-04-17 06:17 19.96161 -103.15306 39024 ft 460 kts 116°
2026-04-17 06:18 19.93896 -103.08988 39033 ft 460 kts 116°
2026-04-17 06:18 19.91614 -103.02625 39021 ft 460 kts 116°
2026-04-17 06:19 19.89330 -102.96269 39027 ft 459 kts 116°
2026-04-17 06:19 19.87048 -102.89926 39023 ft 459 kts 116°
2026-04-17 06:20 19.84765 -102.83588 39019 ft 459 kts 116°
2026-04-17 06:20 19.82493 -102.77287 39021 ft 459 kts 116°
2026-04-17 06:21 19.80205 -102.70949 39023 ft 459 kts 116°
2026-04-17 06:21 19.77911 -102.64605 39025 ft 459 kts 116°
2026-04-17 06:22 19.75633 -102.58311 39025 ft 459 kts 116°
2026-04-17 06:22 19.73336 -102.51973 39029 ft 459 kts 116°
2026-04-17 06:23 19.71044 -102.45658 39038 ft 459 kts 116°
2026-04-17 06:23 19.68749 -102.39343 39043 ft 458 kts 116°
2026-04-17 06:24 19.66451 -102.33027 39042 ft 458 kts 116°
2026-04-17 06:24 19.64167 -102.26757 39052 ft 458 kts 116°
2026-04-17 06:25 19.61871 -102.20461 39053 ft 457 kts 116°
2026-04-17 06:25 19.59574 -102.14170 39055 ft 457 kts 116°
2026-04-17 06:26 19.57274 -102.07880 39055 ft 457 kts 116°
2026-04-17 06:26 19.54990 -102.01640 39051 ft 456 kts 116°
2026-04-17 06:27 19.52689 -101.95362 39054 ft 456 kts 116°
2026-04-17 06:27 19.50388 -101.89092 39052 ft 455 kts 116°
2026-04-17 06:28 19.48093 -101.82847 39054 ft 454 kts 116°
2026-04-17 06:28 19.45799 -101.76610 39053 ft 455 kts 116°
2026-04-17 06:29 19.43515 -101.70408 39045 ft 454 kts 116°
2026-04-17 06:29 19.41215 -101.64173 39039 ft 454 kts 116°
2026-04-17 06:30 19.38913 -101.57937 39035 ft 454 kts 116°
2026-04-17 06:30 19.36607 -101.51698 39030 ft 454 kts 116°
2026-04-17 06:31 19.34320 -101.45517 39022 ft 454 kts 116°
2026-04-17 06:31 19.32011 -101.39287 39007 ft 454 kts 116°
2026-04-17 06:32 19.29704 -101.33068 38998 ft 453 kts 116°
2026-04-17 06:32 19.27394 -101.26850 38986 ft 453 kts 116°
2026-04-17 06:33 19.25098 -101.20674 38971 ft 454 kts 116°
2026-04-17 06:33 19.22784 -101.14457 38965 ft 454 kts 116°
2026-04-17 06:34 19.20471 -101.08253 38956 ft 453 kts 116°
2026-04-17 06:34 19.18154 -101.02045 38942 ft 453 kts 116°
2026-04-17 06:35 19.15835 -100.95839 38938 ft 453 kts 116°
2026-04-17 06:35 19.13522 -100.89654 38871 ft 450 kts 116°
2026-04-17 06:35 19.12372 -100.86579 38648 ft 450 kts 116°
2026-04-17 06:36 19.11213 -100.83488 38414 ft 452 kts 116°
2026-04-17 06:36 19.10062 -100.80421 38557 ft 455 kts 116°
2026-04-17 06:36 19.08895 -100.77309 38828 ft 455 kts 116°
2026-04-17 06:37 19.06565 -100.71099 38916 ft 451 kts 116°
2026-04-17 06:37 19.04252 -100.64945 38920 ft 451 kts 116°
2026-04-17 06:38 19.01932 -100.58780 38919 ft 450 kts 116°
2026-04-17 06:38 18.99629 -100.52664 38920 ft 450 kts 116°
2026-04-17 06:39 18.97314 -100.46527 38930 ft 450 kts 116°
2026-04-17 06:39 18.94999 -100.40396 38933 ft 449 kts 116°
2026-04-17 06:40 18.92682 -100.34266 38942 ft 449 kts 116°
2026-04-17 06:40 18.90368 -100.28151 38948 ft 448 kts 116°
2026-04-17 06:41 18.88032 -100.21990 38305 ft 456 kts 116°
2026-04-17 06:41 18.86844 -100.18862 37331 ft 462 kts 116°
2026-04-17 06:41 18.85640 -100.15690 36509 ft 467 kts 116°
2026-04-17 06:41 18.84442 -100.12533 35685 ft 470 kts 116°
2026-04-17 06:42 18.83222 -100.09320 34909 ft 472 kts 116°
2026-04-17 06:42 18.81998 -100.06098 34137 ft 473 kts 116°
2026-04-17 06:42 18.80771 -100.02870 33290 ft 474 kts 116°
2026-04-17 06:42 18.79540 -99.99638 32350 ft 476 kts 115°
2026-04-17 06:43 18.78300 -99.96382 31380 ft 479 kts 115°
2026-04-17 06:43 18.77069 -99.93153 30419 ft 481 kts 114°
2026-04-17 06:43 18.75821 -99.89864 29444 ft 483 kts 112°
2026-04-17 06:43 18.74911 -99.86470 28799 ft 477 kts 100°
2026-04-17 06:44 18.74788 -99.83028 28554 ft 463 kts 85°
2026-04-17 06:44 18.75476 -99.79776 28351 ft 451 kts 70°
2026-04-17 06:44 18.76909 -99.76854 28135 ft 448 kts 54°
2026-04-17 06:44 18.78984 -99.74424 27912 ft 444 kts 39°
2026-04-17 06:45 18.81549 -99.72635 27701 ft 440 kts 24°
2026-04-17 06:45 18.84384 -99.71593 27519 ft 435 kts
2026-04-17 06:45 18.87375 -99.71307 27428 ft 429 kts 355°
2026-04-17 06:45 18.90305 -99.71782 27358 ft 424 kts 341°
2026-04-17 06:46 18.93007 -99.72962 27283 ft 419 kts 328°
2026-04-17 06:46 18.95344 -99.74759 27217 ft 414 kts 314°
2026-04-17 06:46 18.97203 -99.77057 27144 ft 410 kts 301°
2026-04-17 06:46 18.98510 -99.79670 27085 ft 407 kts 292°
2026-04-17 06:47 18.99492 -99.82468 27000 ft 405 kts 285°
2026-04-17 06:47 19.00051 -99.85382 26929 ft 403 kts 275°
2026-04-17 06:47 19.00063 -99.88340 26851 ft 402 kts 263°
2026-04-17 06:47 18.99475 -99.91215 26832 ft 400 kts 251°
2026-04-17 06:48 18.98277 -99.93895 27117 ft 406 kts 238°
2026-04-17 06:48 18.96534 -99.96256 27647 ft 410 kts 227°
2026-04-17 06:48 18.94370 -99.98171 27946 ft 412 kts 216°
2026-04-17 06:48 18.91816 -99.99568 28015 ft 415 kts 203°
2026-04-17 06:49 18.89000 -100.00318 27999 ft 420 kts 189°
2026-04-17 06:49 18.86068 -100.00306 28001 ft 426 kts 175°
2026-04-17 06:49 18.83194 -99.99483 28000 ft 431 kts 160°
2026-04-17 06:49 18.80597 -99.97869 27997 ft 437 kts 144°
2026-04-17 06:50 18.78472 -99.95554 27996 ft 442 kts 129°
2026-04-17 06:50 18.76710 -99.92885 27998 ft 444 kts 123°
2026-04-17 06:50 18.75327 -99.90009 27990 ft 447 kts 113°
2026-04-17 06:50 18.74474 -99.86856 27995 ft 449 kts 101°
2026-04-17 06:51 18.74291 -99.83563 27997 ft 450 kts 87°
2026-04-17 06:51 18.74846 -99.80320 28001 ft 451 kts 72°
2026-04-17 06:51 18.75563 -99.78258 28006 ft 451 kts 68°
2026-04-17 06:52 18.78052 -99.72188 28010 ft 451 kts 66°
2026-04-17 06:52 18.80570 -99.66109 28018 ft 451 kts 66°
2026-04-17 06:53 18.83059 -99.60038 28023 ft 451 kts 66°
2026-04-17 06:53 18.85538 -99.53967 28025 ft 450 kts 66°
2026-04-17 06:53 18.86774 -99.50933 27972 ft 449 kts 66°
2026-04-17 06:54 18.87982 -99.47967 27499 ft 442 kts 66°
2026-04-17 06:54 18.89188 -99.45004 26917 ft 436 kts 66°
2026-04-17 06:54 18.90383 -99.42067 26517 ft 435 kts 66°
2026-04-17 06:54 18.91584 -99.39111 26098 ft 436 kts 66°
2026-04-17 06:55 18.92792 -99.36167 25257 ft 437 kts 67°
2026-04-17 06:55 18.93819 -99.33146 24454 ft 437 kts 75°
2026-04-17 06:55 18.94362 -99.29998 23833 ft 433 kts 85°
2026-04-17 06:55 18.94360 -99.26862 23270 ft 424 kts 96°
2026-04-17 06:56 18.93835 -99.23838 22704 ft 414 kts 106°
2026-04-17 06:56 18.92836 -99.21023 22155 ft 405 kts 116°
2026-04-17 06:56 18.91431 -99.18491 21756 ft 394 kts 125°
2026-04-17 06:56 18.89902 -99.16157 21506 ft 379 kts 123°
2026-04-17 06:57 18.88720 -99.13768 21277 ft 366 kts 111°
2026-04-17 06:57 18.88037 -99.11230 21081 ft 350 kts 103°
2026-04-17 06:57 18.87574 -99.08772 20757 ft 334 kts 101°
2026-04-17 06:57 18.87170 -99.06391 20239 ft 326 kts 99°
2026-04-17 06:58 18.86984 -99.04015 19654 ft 322 kts 89°
2026-04-17 06:58 18.87237 -99.01687 19078 ft 318 kts 76°
2026-04-17 06:58 18.87954 -98.99497 18514 ft 313 kts 64°
2026-04-17 06:58 18.89085 -98.97554 17912 ft 308 kts 51°
2026-04-17 06:59 18.90558 -98.95935 17258 ft 305 kts 39°
2026-04-17 06:59 18.92302 -98.94698 16771 ft 301 kts 27°
2026-04-17 06:59 18.94211 -98.93881 16528 ft 301 kts 16°
2026-04-17 06:59 18.96267 -98.93479 16286 ft 301 kts
2026-04-17 07:00 18.98356 -98.93534 16037 ft 299 kts 352°
2026-04-17 07:00 19.00371 -98.94039 15797 ft 297 kts 340°
2026-04-17 07:00 19.02240 -98.94956 15557 ft 296 kts 330°
2026-04-17 07:00 19.03994 -98.96089 15331 ft 293 kts 328°
2026-04-17 07:01 19.05677 -98.97233 15165 ft 282 kts 327°
2026-04-17 07:01 19.07306 -98.98344 14939 ft 275 kts 327°
2026-04-17 07:01 19.08910 -98.99409 14670 ft 270 kts 330°
2026-04-17 07:01 19.10579 -99.00270 14496 ft 266 kts 339°
2026-04-17 07:02 19.12347 -99.00815 14305 ft 264 kts 349°
2026-04-17 07:02 19.14167 -99.01040 14117 ft 263 kts 356°
2026-04-17 07:02 19.15995 -99.01144 13883 ft 263 kts 356°
2026-04-17 07:02 19.17772 -99.01555 13609 ft 262 kts 336°
2026-04-17 07:03 19.19274 -99.02630 13325 ft 261 kts 320°
2026-04-17 07:03 19.20616 -99.03921 13060 ft 261 kts 317°
2026-04-17 07:03 19.21931 -99.05249 12793 ft 261 kts 316°
2026-04-17 07:03 19.23248 -99.06579 12527 ft 261 kts 316°
2026-04-17 07:04 19.24602 -99.07814 12325 ft 261 kts 323°
2026-04-17 07:04 19.26104 -99.08969 11627 ft 273 kts 325°
2026-04-17 07:04 19.27649 -99.10092 11286 ft 265 kts 326°
2026-04-17 07:04 19.29160 -99.11183 10884 ft 261 kts 326°
2026-04-17 07:05 19.30665 -99.12271 10410 ft 262 kts 325°
2026-04-17 07:05 19.32152 -99.13348 9807 ft 256 kts 325°
2026-04-17 07:05 19.33610 -99.14406 9290 ft 248 kts 325°
2026-04-17 07:05 19.34942 -99.15375 9345 ft 213 kts 325°
2026-04-17 07:06 19.36178 -99.16255 9501 ft 223 kts 326°
2026-04-17 07:06 19.37427 -99.17096 9516 ft 210 kts 328°
2026-04-17 07:06 19.38749 -99.17748 9477 ft 209 kts 347°
2026-04-17 07:06 19.40138 -99.17647 9436 ft 197 kts 24°
2026-04-17 07:07 19.41146 -99.16712 9423 ft 201 kts 61°
2026-04-17 07:07 19.41411 -99.15308 9394 ft 195 kts 96°
2026-04-17 07:07 19.41190 -99.13890 9218 ft 196 kts 104°
2026-04-17 07:07 19.40995 -99.12472 8891 ft 194 kts 85°
2026-04-17 07:08 19.41301 -99.11103 8405 ft 191 kts 65°
2026-04-17 07:08 19.41961 -99.09882 7798 ft 192 kts 57°
2026-04-17 07:08 19.42644 -99.08676 7438 ft 188 kts 58°
2026-04-17 07:08 19.43289 -99.07533 7325 ft 170 kts 57°
2026-04-17 07:09 19.43800 -99.06630 7306 ft 97 kts 60°
2026-04-17 07:09 19.43974 -99.06226 7306 ft 24 kts 90°
2026-04-17 07:09 19.43969 -99.06094 7306 ft 13 kts 90°
2026-04-17 07:09 19.43977 -99.05976 7306 ft 20 kts 72°
2026-04-17 07:10 19.44055 -99.05855 7306 ft 20 kts 32°
2026-04-17 07:10 19.44176 -99.05832 7306 ft 18 kts
2026-04-17 07:10 19.44312 -99.05823 7306 ft 21 kts
2026-04-17 07:10 19.44380 -99.05886 7306 ft 15 kts 246°
2026-04-17 07:11 19.44327 -99.05986 7306 ft 16 kts 245°
2026-04-17 07:11 19.44350 -99.06101 7306 ft 17 kts 293°
2026-04-17 07:11 19.44401 -99.06229 7306 ft 20 kts 292°
2026-04-17 07:11 19.44415 -99.06335 7306 ft 11 kts 245°
2026-04-17 07:12 19.44372 -99.06414 7306 ft 14 kts 239°
2026-04-17 07:12 19.44317 -99.06509 7306 ft 16 kts 239°
2026-04-17 07:12 19.44258 -99.06617 7306 ft 18 kts 239°
2026-04-17 07:12 19.44189 -99.06739 7306 ft 21 kts 239°
2026-04-17 07:13 19.44111 -99.06876 7306 ft 23 kts 238°
2026-04-17 07:13 19.44032 -99.07017 7306 ft 17 kts 240°
2026-04-17 07:13 19.43997 -99.07080 7306 ft 0 kts 239°
2026-04-17 07:15 19.43993 -99.07087 7306 ft 3 kts 239°
2026-04-17 07:15 19.43981 -99.07117 7306 ft 5 kts 266°
2026-04-17 07:15 19.44009 -99.07148 7306 ft 8 kts 329°
2026-04-17 07:15 19.44061 -99.07144 7306 ft 9 kts 358°
2026-04-17 07:16 19.44120 -99.07174 7306 ft 7 kts 329°
2026-04-17 07:16 19.44132 -99.07182 7306 ft 0 kts 328°